Weather History for Baltimore Martin, MD

Change the Weather History Date:

Tuesday, September 17, 2013

  Actual Average Record
Temperature  
Mean Temperature 59 °F -  
Max Temperature 68 °F 74 °F 87 °F (2005)
Min Temperature 50 °F 59 °F 48 °F (2000)
Degree Days  
Heating Degree Days 6    
Growing Degree Days 9 (Base 50)    
Moisture  
Dew Point 47 °F    
Average Humidity 69    
Maximum Humidity 88    
Minimum Humidity 37    
Precipitation  
Precipitation 0.00 in - - ()
Sea Level Pressure  
Sea Level Pressure 30.35 in    
Wind  
Wind Speed 4 mph (North)    
Max Wind Speed 12 mph    
Max Gust Speed -    
Visibility 10 miles    
Events      
Averages and records for this station are not official NWS values.
T = Trace of Precipitation, MM = Missing Value Source: NWS Daily Summary

Daily Weather History Graph

Daily Weather History Graph

Search for Another Location

Airport:

Trip Planner

Search our weather history database for the weather conditions in past years. The results will help you decide how hot, cold, wet, or windy it might be!

Date:

Astronomy

Sep. 17, 2013 Rise Set
Actual Time 6:48 AM EDT 7:10 PM EDT
Civil Twilight 6:22 AM EDT 7:37 PM EDT
Nautical Twilight 5:50 AM EDT 8:08 PM EDT
Astronomical Twilight 5:18 AM EDT 8:40 PM EDT
Moon 5:55 PM EDT (9/17) 4:41 AM EDT (9/17)
Length of Visible Light 13h 15m
Length of Day
12h 21m
Waxing Gibbous, 96% of the Moon is Illuminated
Sep 17
Waxing Gibbous
Sep 19
Full
Sep 26
Last Quarter
Oct 4
New
Oct 11
First Quarter

Hourly Weather History & Observations

Time (EDT) Temp. Dew Point Humidity Pressure Visibility Wind Dir Wind Speed Gust Speed Precip Events Conditions
12:03 AM 60.8 °F 53.6 °F 77% 30.26 in 10.0 mi NNW 4.6 mph - N/A   Overcast
12:24 AM 60.8 °F 53.6 °F 77% 30.26 in 10.0 mi North 3.5 mph - N/A   Scattered Clouds
12:42 AM 60.8 °F 53.6 °F 77% 30.27 in 10.0 mi Calm Calm - N/A   Mostly Cloudy
1:03 AM 60.8 °F 53.6 °F 77% 30.28 in 10.0 mi Calm Calm - N/A   Mostly Cloudy
1:24 AM 60.8 °F 53.6 °F 77% 30.28 in 10.0 mi NNW 4.6 mph - N/A   Overcast
1:42 AM 59.0 °F 53.6 °F 82% 30.29 in 10.0 mi Calm Calm - N/A   Mostly Cloudy
2:03 AM 59.0 °F 51.8 °F 77% 30.29 in 10.0 mi NNW 4.6 mph - N/A   Clear
2:24 AM 59.0 °F 51.8 °F 77% 30.30 in 10.0 mi NNW 6.9 mph - N/A   Clear
2:42 AM 59.0 °F 51.8 °F 77% 30.30 in 10.0 mi NNW 4.6 mph - N/A   Clear
3:03 AM 57.2 °F 50.0 °F 77% 30.31 in 10.0 mi Calm Calm - N/A   Clear
3:24 AM 55.4 °F 50.0 °F 82% 30.32 in 10.0 mi NNW 5.8 mph - N/A   Clear
3:42 AM 55.4 °F 48.2 °F 77% 30.32 in 10.0 mi NNW 4.6 mph - N/A   Clear
4:03 AM 55.4 °F 46.4 °F 72% 30.33 in 10.0 mi NNW 6.9 mph - N/A   Clear
4:24 AM 53.6 °F 44.6 °F 72% 30.33 in 10.0 mi NNW 8.1 mph - N/A   Clear
4:39 AM 53.6 °F 44.6 °F 72% 30.34 in 10.0 mi NW 6.9 mph - N/A   Clear
5:03 AM 51.8 °F 44.6 °F 76% 30.35 in 10.0 mi NW 4.6 mph - N/A   Clear
5:33 AM 51.8 °F 44.6 °F 76% 30.36 in 10.0 mi NW 3.5 mph - N/A   Clear
5:45 AM 51.8 °F 44.6 °F 76% 30.37 in 10.0 mi NW 5.8 mph - N/A   Partly Cloudy
6:45 AM 50.0 °F 44.6 °F 82% 30.39 in 10.0 mi NNW 5.8 mph - N/A   Partly Cloudy
7:55 AM 51.8 °F 44.6 °F 76% 30.42 in 10.0 mi North 3.5 mph - N/A   Partly Cloudy
8:45 AM 53.6 °F 44.6 °F 72% 30.43 in 10.0 mi North 5.8 mph - N/A   Partly Cloudy
9:45 AM 57.2 °F 42.8 °F 59% 30.45 in 10.0 mi NNE 5.8 mph - N/A   Clear
10:45 AM 60.8 °F 42.8 °F 52% 30.45 in 10.0 mi North 4.6 mph - N/A   Clear
11:45 AM 62.6 °F 42.8 °F 48% 30.45 in 10.0 mi NW 4.6 mph - N/A   Clear
12:45 PM 62.6 °F 39.2 °F 42% 30.43 in 10.0 mi Calm Calm - N/A   Clear
1:45 PM 66.2 °F 39.2 °F 37% 30.42 in 10.0 mi NNE 3.5 mph - N/A   Clear
2:50 PM 68.0 °F 41.0 °F 37% 30.39 in 10.0 mi ENE 3.5 mph - N/A   Clear
3:55 PM 68.0 °F 44.6 °F 43% 30.36 in 10.0 mi ESE 9.2 mph - N/A   Clear
4:50 PM 66.2 °F 42.8 °F 43% 30.36 in 10.0 mi ESE 9.2 mph - N/A   Clear
5:45 PM 66.2 °F 42.8 °F 43% 30.35 in 10.0 mi East 4.6 mph - N/A   Clear
6:45 PM 64.4 °F 44.6 °F 49% 30.35 in 10.0 mi ENE 5.8 mph - N/A   Clear
7:45 PM 60.8 °F 46.4 °F 59% 30.35 in 10.0 mi East 3.5 mph - N/A   Clear
8:45 PM 57.2 °F 46.4 °F 67% 30.36 in 10.0 mi Calm Calm - N/A   Clear
9:45 PM 53.6 °F 50.0 °F 88% 30.37 in 10.0 mi Calm Calm - N/A   Clear
10:06 PM 53.6 °F 50.0 °F 88% 30.37 in 10.0 mi Calm Calm - N/A   Clear
10:24 PM 51.8 °F 48.2 °F 88% 30.37 in 10.0 mi Calm Calm - N/A   Clear
10:45 PM 55.4 °F 50.0 °F 82% 30.37 in 10.0 mi ESE 8.1 mph - N/A   Clear
11:06 PM 59.0 °F 50.0 °F 72% 30.38 in 10.0 mi ESE 11.5 mph - N/A   Clear
11:24 PM 59.0 °F 50.0 °F 72% 30.38 in 10.0 mi ESE 11.5 mph - N/A   Clear
11:45 PM 59.0 °F 50.0 °F 72% 30.37 in 10.0 mi ESE 9.2 mph - N/A   Clear